Home > Weather > Greater Sudbury > Past weeks

Flag for Canada Past Weather in Greater Sudbury, Ontario, Canada — Yesterday and Last 2 Weeks

Now
57 °F

Sprinkles. Overcast.


Feels Like: 55 °F
Forecast: 55 / 71 °F
Wind: 10 mph from Northeast

Location: Sudbury

Current Time: May 25, 2016 at 3:17:06 AM

Latest Report: May 25, 2016 at 2:00 AM


Visibility: 15 mi

Pressure: 29.96 "Hg

Humidity: 72%

Dew Point: 48 °F

Location of Greater SudburyLocation

Past Weather in Greater Sudbury — Graph

°F

Greater Sudbury Temperature Yesterday

Maximum temperature yesterday: 82 °F (at 2:00 PM)
Minimum temperature yesterday: 46 °F (at 5:00 AM)
Average temperature yesterday: 65 °F

High & Low Weather Summary for the Past Weeks

 TemperatureHumidityPressure
High82 °F (May 24, 2:00 PM)100% (May 12, 10:00 PM)30.31 "Hg (May 12, 10:00 PM)
Low27 °F (May 16, 5:00 AM)8% (May 11, 6:00 PM)29.61 "Hg (May 13, 6:00 AM)
Average54 °F52%30.03 "Hg
* Reported May 10 2:00 AM — May 25 2:00 AM, Greater Sudbury, Weather by CustomWeather, © 2016

Note: Actual official high and low records may vary slightly from our data, if they occured in-between our weather recording intervals... More about our weather records

Advertising

Greater Sudbury Weather History for the Previous 24 Hours

Scroll right to see more
 ConditionsComfort  
Time TempWeatherWind HumidityBarometerVisibility
2:00 AM
Wed, May 25
57 °FSprinkles. Overcast.10 mph72%29.96 "Hg15 mi
1:00 AM59 °FSprinkles. Overcast.12 mph72%29.96 "Hg15 mi
12:00 AM61 °FSprinkles. Overcast.15 mph68%29.96 "Hg15 mi
11:00 PM
Tue, May 24
63 °FSprinkles. Overcast.15 mph68%29.95 "Hg15 mi
10:00 PM66 °FPartly sunny.12 mph64%29.96 "Hg15 mi
9:00 PM70 °FPartly sunny.6 mph57%29.93 "Hg20 mi
8:00 PM73 °FPartly sunny.12 mph38%29.90 "Hg20 mi
7:00 PM77 °FPartly sunny.17 mph32%29.88 "Hg20 mi
6:00 PM79 °FBroken clouds.20 mph32%29.89 "Hg20 mi
5:00 PM82 °FPartly sunny.16 mph28%29.88 "Hg20 mi
4:00 PM82 °FPassing clouds.14 mph26%29.88 "Hg20 mi
3:00 PM82 °FPassing clouds.12 mph28%29.90 "Hg20 mi
2:00 PM82 °FPassing clouds.18 mph28%29.91 "Hg20 mi
1:00 PM81 °FScattered clouds.15 mph28%29.92 "Hg20 mi
12:00 PM77 °FScattered clouds.13 mph30%29.93 "Hg20 mi
11:00 AM72 °FScattered clouds.13 mph33%29.95 "Hg20 mi
10:00 AM64 °FScattered clouds.8 mph40%29.95 "Hg20 mi
9:00 AM59 °FScattered clouds.10 mph45%29.96 "Hg20 mi
8:00 AM54 °FScattered clouds.7 mph63%29.96 "Hg20 mi
7:00 AM52 °FScattered clouds.6 mph54%29.95 "Hg20 mi
6:00 AM48 °FPassing clouds.3 mph62%29.95 "Hg20 mi
5:00 AM46 °FPassing clouds.8 mph71%29.95 "Hg15 mi
4:00 AM50 °FPassing clouds.6 mph54%29.94 "Hg15 mi
3:00 AM50 °FPassing clouds.6 mph54%29.95 "Hg15 mi
Weather by CustomWeather, © 2016

See weather overviewHow to use our weather pages